カタログに戻る

FENGYUN 1C DEB

運用中PO
NORAD 31741·DEBRIS·🇨🇳 China

打ち上げ May 10, 1999 から Taiyuan Satellite Launch Center

Loading…

次のパス (今後24時間)

TLE

経年Source: Space-Track

元期: Sep 7, 2026, 00:32 UTC

1 31741U 99025CEQ 26250.02234562  .00002042  00000-0  65319-3 0  9995
2 31741  99.0751 192.6664 0174176  11.2323 349.2670 14.32517890 60592

AllMySatでFENGYUN 1C DEBをリアルタイム追跡

Download on the App Store